Home > Weather > Beaumont > Past weeks

Flag for USA Weather for the Past 2 Weeks in Beaumont, Texas, USA

Now
72 °F

Thunderstorms. Low clouds.


Feels Like: 68 °F
Forecast: 72 / 82 °F
Wind: 16 mph from North

Location: Jefferson County Airport

Current Time: May 1, 2016 at 7:46:43 AM

Latest Report: May 1, 2016 at 7:03 AM


Visibility: 10 mi

Pressure: 29.79 "Hg

Humidity: 93%

Dew Point: 70 °F

Location of BeaumontLocation

Historic Weather in Beaumont — Graph

°F

Beaumont Temperature Yesterday

Maximum temperature yesterday: 87 °F (at 2:53 PM)
Minimum temperature yesterday: 69 °F (at 8:53 AM)
Average temperature yesterday: 78 °F

High & Low Weather Summary for the Past Weeks

 TemperatureHumidityPressure
High87 °F (Apr 30, 2:53 PM)100% (Apr 18, 9:53 AM)30.11 "Hg (Apr 18, 9:53 AM)
Low57 °F (Apr 23, 5:53 AM)37% (Apr 23, 1:53 PM)29.63 "Hg (Apr 27, 5:53 AM)
Average73 °F84%29.90 "Hg
* Reported Apr 16 6:53 AM — May 1 6:53 AM, Beaumont, Weather by CustomWeather, © 2016

Note: Actual official high and low records may vary slightly from our data, if they occured in-between our weather recording intervals... More about our weather records

Advertising

Beaumont Weather History for the Previous 24 Hours

Scroll right to see more
 ConditionsComfort  
Time TempWeatherWind HumidityBarometerVisibility
6:53 AM
Sun, May 1
73 °FThundershowers. Low clouds.9 mph94%29.78 "Hg9 mi
5:53 AM73 °FLight rain. Mostly cloudy.6 mph94%29.77 "Hg7 mi
5:04 AM71 °FLight rain. Mostly cloudy.7 mph90%29.77 "Hg10 mi
4:53 AM71 °FHeavy rain. Fog.8 mph93%29.77 "Hg3 mi
4:01 AM68 °FStrong thunderstorms. Fog.8 mph96%29.77 "Hg1 mi
2:53 AM77 °FLight rain. Fog.8 mph96%29.78 "Hg5 mi
1:53 AM77 °FFog.8 mph96%29.79 "Hg6 mi
12:53 AM77 °FFog.6 mph94%29.80 "Hg6 mi
11:53 PM
Sat, Apr 30
77 °FFog.7 mph94%29.80 "Hg5 mi
10:53 PM78 °FLow clouds.7 mph93%29.80 "Hg7 mi
9:53 PM78 °FOvercast.7 mph90%29.78 "Hg7 mi
8:53 PM77 °FMostly cloudy.10 mph94%29.75 "Hg7 mi
7:53 PM78 °FFog.8 mph87%29.72 "Hg6 mi
6:53 PM81 °FSunny.8 mph79%29.71 "Hg9 mi
5:53 PM84 °FSunny.10 mph72%29.68 "Hg10 mi
4:53 PM86 °FSunny.8 mph65%29.68 "Hg10 mi
3:53 PM87 °FSunny.8 mph59%29.68 "Hg10 mi
2:53 PM87 °FSunny.10 mph57%29.69 "Hg10 mi
1:53 PM86 °FSunny.8 mph51%29.70 "Hg10 mi
12:53 PM83 °FSunny.5 mph61%29.70 "Hg10 mi
11:53 AM80 °FSunny.3 mph62%29.71 "Hg10 mi
10:58 AM74 °FPassing clouds.5 mph82%29.73 "Hg10 mi
9:53 AM70 °FThundershowers. Overcast.7 mph90%29.75 "Hg10 mi
8:53 AM69 °FThundershowers. Overcast.7 mph93%29.74 "Hg10 mi
7:53 AM75 °FThundershowers. Fog.6 mph96%29.72 "Hg6 mi
Weather by CustomWeather, © 2016

See weather overviewHow to use our weather pages